Waarnemingen

Advertentie
Mijn weer
Ploumanach, Frankrijk (7117): temperatuur & dauwpunt: 18.07.2019 00:00:00 - 24.07.2019 00:00:00 (CEST)Ploumanach, Frankrijk (7117): windsnelheid & windstoten: 18.07.2019 00:00:00 - 24.07.2019 00:00:00 (CEST)Ploumanach, Frankrijk (7117): windrichting: 18.07.2019 00:00:00 - 24.07.2019 00:00:00 (CEST)Ploumanach, Frankrijk (7117): luchtdruk: 18.07.2019 00:00:00 - 24.07.2019 00:00:00 (CEST)Ploumanach, Frankrijk (7117): zicht: 18.07.2019 00:00:00 - 24.07.2019 00:00:00 (CEST)Ploumanach, Frankrijk (7117): neerslag: 18.07.2019 00:00:00 - 24.07.2019 00:00:00 (CEST)
Datum & Tijd tt [°C] td [°C] ff [km/u] ff [kn] fx [km/u] fx [kn] dd ppp [hPa] vv [km] rr [mm]
24.07.2019 00:00:00 18,2 16,9 11 6 30 16 ZW 1012,5 - 0,0
23.07.2019 23:00:00 18,5 16,3 17 9 34 18 WZW 1013,0 - 0,0
23.07.2019 22:00:00 19,2 16,1 12 6 28 15 WZW 1012,5 - 0,0
23.07.2019 21:00:00 21,4 15,7 16 9 27 14 WZW 1012,7 - 0,0
23.07.2019 20:00:00 22,7 16,5 11 6 18 10 W 1012,4 18 0,0
23.07.2019 19:00:00 25,6 16,4 7 4 12 7 N 1011,7 - 0,0
23.07.2019 18:00:00 24,5 16,7 6 4 11 6 NNO 1012,4 - 0,0
23.07.2019 17:00:00 22,6 16,6 6 3 11 6 NO 1013,0 14 0,0
23.07.2019 16:00:00 22,5 17,8 6 3 12 7 N 1013,5 - 0,0
23.07.2019 15:00:00 20,9 17,5 6 3 10 6 ONO 1013,6 - 0,0
23.07.2019 14:00:00 21,2 17,2 4 2 12 7 NNO 1014,0 10 0,0
23.07.2019 13:00:00 21,5 17,5 9 5 14 7 O 1014,2 - 0,0
23.07.2019 12:00:00 22,2 18,2 10 5 13 7 O 1014,7 - 0,0
23.07.2019 11:00:00 20,1 16,9 8 4 12 7 ONO 1015,0 12 0,0
23.07.2019 10:00:00 20,4 17,2 8 4 20 11 O 1015,5 - 0,0
23.07.2019 09:00:00 19,6 17,4 10 5 22 12 O 1015,8 - 0,0
23.07.2019 08:00:00 17,5 16,7 16 9 24 13 O 1015,7 - 0,0
23.07.2019 07:00:00 16,4 16,2 16 9 22 12 O 1016,5 - 0,0
23.07.2019 06:00:00 16,3 16,1 15 8 19 11 O 1017,4 - 0,0
23.07.2019 05:00:00 16,2 16,0 11 6 18 10 O 1018,6 - 0,0
23.07.2019 04:00:00 16,3 16,3 11 6 20 11 O 1019,1 - 0,2
23.07.2019 03:00:00 16,5 16,5 13 7 21 11 O 1019,8 - 0,0
23.07.2019 02:00:00 16,0 16,0 8 4 10 6 ONO 1020,7 - 0,0
23.07.2019 01:00:00 16,4 16,4 9 5 13 7 ONO 1021,0 - 0,0
23.07.2019 00:00:00 16,3 16,1 9 5 11 6 O 1021,3 - 0,0
22.07.2019 23:00:00 16,6 16,3 8 5 11 6 ONO 1021,3 - 0,0
22.07.2019 22:00:00 17,0 16,4 8 4 13 7 O 1021,8 - 0,0
22.07.2019 21:00:00 18,2 16,7 9 5 15 8 O 1021,9 - 0,0
22.07.2019 20:00:00 19,5 17,1 9 5 15 8 ONO 1021,8 12 0,0
22.07.2019 19:00:00 19,9 17,1 8 4 16 9 ONO 1022,0 - 0,0
22.07.2019 18:00:00 20,8 17,2 11 6 18 10 ONO 1022,4 - 0,0
22.07.2019 17:00:00 20,9 16,9 14 8 18 10 NO 1022,7 15 0,0
22.07.2019 16:00:00 21,8 17,2 11 6 16 9 ONO 1023,2 - 0,0
22.07.2019 15:00:00 20,7 16,5 8 4 13 7 ONO 1023,6 - 0,0
22.07.2019 14:00:00 22,1 15,9 9 5 18 10 NNO 1023,8 15 0,0
22.07.2019 13:00:00 22,2 15,5 11 6 19 11 WNW 1024,1 - 0,0
22.07.2019 12:00:00 22,4 15,5 12 6 17 9 NW 1024,1 - 0,0
22.07.2019 11:00:00 21,9 15,3 8 4 14 8 WZW 1024,3 20 0,0
22.07.2019 10:00:00 19,5 16,3 9 5 17 9 ZZW 1024,3 - 0,0
22.07.2019 09:00:00 16,9 15,8 10 6 18 10 ZZW 1024,0 - 0,0
22.07.2019 08:00:00 14,6 14,3 12 6 19 10 Z 1023,9 0,6 0,0
22.07.2019 07:00:00 14,8 14,3 9 5 18 10 Z 1023,6 - 0,2
22.07.2019 06:00:00 15,4 15,1 14 7 19 10 ZZW 1023,7 - 0,0
22.07.2019 05:00:00 15,6 15,0 11 6 19 10 ZZW 1023,7 - 0,0
22.07.2019 04:00:00 15,7 15,2 13 7 17 9 ZW 1023,6 - 0,0
22.07.2019 03:00:00 16,0 15,0 11 6 18 10 ZZW 1023,9 - 0,0
22.07.2019 02:00:00 16,3 15,2 11 6 18 10 ZZW 1024,3 - 0,0
22.07.2019 01:00:00 17,1 15,1 10 5 17 9 ZZW 1024,5 - 0,0
22.07.2019 00:00:00 16,6 14,4 7 4 13 7 Z 1024,4 - 0,0
21.07.2019 23:00:00 17,0 14,8 4 2 8 4 WZW 1024,2 - 0,0
21.07.2019 22:00:00 18,4 14,7 5 3 8 5 WZW 1023,7 - 0,0
21.07.2019 21:00:00 20,2 15,2 3 2 12 6 N 1023,2 - 0,0
21.07.2019 20:00:00 21,1 15,4 6 3 13 7 W 1023,2 25 0,0
21.07.2019 19:00:00 21,1 15,6 6 3 12 6 NNO 1022,8 - 0,0
21.07.2019 18:00:00 20,9 15,9 9 5 18 10 NNO 1023,1 - 0,0
21.07.2019 17:00:00 21,7 16,0 9 5 16 9 NNW 1023,2 20 0,0
21.07.2019 16:00:00 21,5 16,2 12 6 19 11 NNO 1023,0 - 0,0
21.07.2019 15:00:00 20,5 15,7 8 4 12 7 NO 1022,8 - 0,0
21.07.2019 14:00:00 20,2 16,2 9 5 13 7 NO 1023,0 20 0,0
21.07.2019 13:00:00 20,7 15,7 9 5 14 7 NW 1022,6 - 0,0
21.07.2019 12:00:00 20,7 15,7 9 5 15 8 NNO 1022,2 - 0,0
21.07.2019 11:00:00 21,0 15,1 7 4 17 9 ZZW 1022,0 20 0,0
21.07.2019 10:00:00 18,8 16,0 6 4 15 8 ZZW 1021,9 - 0,0
21.07.2019 09:00:00 16,0 14,9 10 6 18 10 Z 1022,0 - 0,0
21.07.2019 08:00:00 14,7 13,7 11 6 17 9 Z 1021,8 - 0,0
21.07.2019 07:00:00 14,4 13,6 12 6 16 9 Z 1021,2 - 0,0
21.07.2019 06:00:00 14,4 13,9 12 6 16 9 Z 1020,6 - 0,0
21.07.2019 05:00:00 14,8 14,2 12 6 16 9 Z 1020,3 - 0,0
21.07.2019 04:00:00 14,8 14,0 11 6 15 8 Z 1020,1 - 0,2
21.07.2019 03:00:00 14,7 13,9 12 6 15 8 ZZW 1020,1 - 0,0
21.07.2019 02:00:00 15,0 13,5 11 6 14 8 Z 1019,9 - 0,0
21.07.2019 01:00:00 15,1 13,8 8 4 12 6 ZW 1019,6 - 0,0
21.07.2019 00:00:00 15,0 13,7 8 5 15 8 WZW 1019,3 - 0,0
20.07.2019 23:00:00 15,6 14,0 9 5 21 11 W 1018,9 - 0,0
20.07.2019 22:00:00 16,7 14,3 13 7 26 14 W 1017,9 - 0,0
20.07.2019 21:00:00 18,1 14,8 18 10 33 18 W 1017,0 - 0,0
20.07.2019 20:00:00 19,3 15,4 21 11 35 19 W 1016,3 20 0,0
20.07.2019 19:00:00 18,6 15,7 20 11 36 20 W 1016,0 - 0,0
20.07.2019 18:00:00 18,2 15,6 20 11 36 20 W 1015,6 - 0,0
20.07.2019 17:00:00 20,8 16,0 21 12 39 21 W 1014,9 20 0,0
20.07.2019 16:00:00 20,2 15,8 26 14 49 26 W 1014,2 - 0,0
20.07.2019 15:00:00 22,1 15,0 26 14 50 27 W 1013,5 - 0,0
20.07.2019 14:00:00 20,3 15,3 29 16 50 27 W 1013,0 20 0,0
20.07.2019 13:00:00 19,3 15,4 27 15 44 24 WZW 1012,5 - 0,0
20.07.2019 12:00:00 20,3 16,7 19 10 41 22 W 1012,0 - 0,0
20.07.2019 11:00:00 19,7 16,3 22 12 40 22 WZW 1011,4 18 0,0
20.07.2019 10:00:00 18,6 16,4 26 14 44 24 WZW 1010,8 - 0,0
20.07.2019 09:00:00 18,1 16,4 22 12 41 22 WZW 1010,2 - 0,0
20.07.2019 08:00:00 16,9 16,4 21 11 38 21 WZW 1009,3 20 0,0
20.07.2019 07:00:00 16,8 16,6 22 12 43 23 WZW 1008,8 - 0,0
20.07.2019 06:00:00 17,0 16,7 23 12 41 22 W 1008,3 - 0,6
20.07.2019 05:00:00 18,5 17,7 19 10 39 21 ZW 1008,3 - 0,0
20.07.2019 04:00:00 18,5 17,8 20 11 34 19 ZW 1008,4 - 0,0
20.07.2019 03:00:00 18,3 17,7 16 9 33 18 ZZW 1008,6 - 0,0
20.07.2019 02:00:00 18,3 17,7 16 9 29 16 ZZW 1009,1 - 0,0
20.07.2019 01:00:00 18,2 17,6 15 8 26 14 ZZW 1009,6 - 0,6
20.07.2019 00:00:00 18,3 17,5 15 8 38 20 ZZW 1009,9 - 0,4
19.07.2019 23:00:00 18,3 17,8 16 9 31 17 ZZW 1010,1 - 2,1
19.07.2019 22:00:00 18,4 17,9 13 7 24 13 Z 1010,2 - 2,2
19.07.2019 21:00:00 18,9 18,6 11 6 23 12 ZW 1010,7 - 2,2
19.07.2019 20:00:00 19,5 18,5 14 8 33 18 ZZW 1011,1 - 0,0
19.07.2019 19:00:00 19,9 18,2 16 9 35 19 ZW 1011,5 - 0,0
19.07.2019 18:00:00 20,8 17,6 18 10 40 22 ZW 1011,8 - 0,0
19.07.2019 17:00:00 21,2 17,6 19 11 38 21 ZW 1012,1 15 0,0
19.07.2019 16:00:00 21,7 18,1 21 11 36 19 ZW 1012,5 - 0,0
19.07.2019 15:00:00 20,0 18,5 19 10 33 18 ZW 1012,9 - 0,4
19.07.2019 14:00:00 19,3 18,0 17 9 33 18 ZW 1013,0 5 0,0
19.07.2019 13:00:00 19,6 17,6 18 10 40 22 ZW 1013,0 - 0,0
19.07.2019 12:00:00 20,0 16,4 21 12 48 26 ZW 1012,9 - 0,0
19.07.2019 11:00:00 19,7 16,0 23 12 44 24 ZW 1013,3 14 0,0
19.07.2019 10:00:00 19,0 15,7 21 12 45 24 ZZW 1013,4 - 0,0
19.07.2019 09:00:00 18,2 15,1 22 12 42 23 ZW 1013,4 - 0,0
19.07.2019 08:00:00 17,4 14,9 18 10 35 19 ZW 1013,4 15 0,0
19.07.2019 07:00:00 16,3 14,0 15 8 34 18 ZZW 1013,7 - 0,0
19.07.2019 06:00:00 15,8 14,0 17 9 29 15 ZZW 1013,9 - 0,0
19.07.2019 05:00:00 14,9 13,4 15 8 23 12 Z 1014,2 - 0,0
19.07.2019 04:00:00 14,4 13,3 12 7 20 11 Z 1014,8 - 0,0
19.07.2019 03:00:00 14,6 13,3 12 7 21 11 ZZW 1015,4 - 0,0
19.07.2019 02:00:00 14,6 13,3 12 7 19 10 ZZW 1015,7 - 0,0
19.07.2019 01:00:00 15,1 13,6 10 5 16 9 ZW 1015,9 - 0,0
19.07.2019 00:00:00 15,2 13,6 11 6 19 10 WZW 1016,1 - 0,0
18.07.2019 23:00:00 15,5 13,9 13 7 24 13 WZW 1016,0 - 0,0
18.07.2019 22:00:00 16,5 13,8 15 8 27 15 WZW 1015,5 - 0,0
18.07.2019 21:00:00 18,6 14,1 15 8 29 15 W 1015,1 - 0,0
18.07.2019 20:00:00 18,4 14,3 16 9 31 17 W 1015,1 25 0,0
18.07.2019 19:00:00 18,7 14,6 18 10 32 17 W 1015,0 - 0,0
18.07.2019 18:00:00 19,4 14,4 19 10 30 16 W 1014,9 - 0,0
18.07.2019 17:00:00 20,4 14,3 21 12 32 17 WNW 1014,8 25 0,0
18.07.2019 16:00:00 20,5 13,2 18 10 30 16 W 1014,8 - 0,0
18.07.2019 15:00:00 19,7 13,6 16 9 33 18 W 1015,0 - 0,0
18.07.2019 14:00:00 19,7 14,7 20 11 33 18 W 1015,0 20 0,0
18.07.2019 13:00:00 20,0 15,8 14 7 24 13 W 1014,6 - 0,0
18.07.2019 12:00:00 18,2 15,8 12 7 31 17 W 1014,5 - 0,0
18.07.2019 11:00:00 17,9 16,1 21 11 33 18 W 1014,0 9 0,0
18.07.2019 10:00:00 17,9 16,6 18 10 37 20 WZW 1013,8 - 0,0
18.07.2019 09:00:00 17,5 17,0 18 10 31 17 WZW 1013,6 - 0,0
18.07.2019 08:00:00 17,0 16,7 18 10 31 17 WZW 1013,2 9 0,0
18.07.2019 07:00:00 16,8 16,5 19 10 34 18 ZW 1012,8 - 1,0
18.07.2019 06:00:00 16,8 16,2 18 10 40 22 ZW 1013,0 - 0,2
18.07.2019 05:00:00 17,0 15,3 22 12 35 19 ZW 1013,1 - 0,0
18.07.2019 04:00:00 16,5 14,9 22 12 36 19 ZW 1013,6 - 0,0
18.07.2019 03:00:00 15,8 14,3 21 11 33 18 ZW 1014,2 - 0,0
18.07.2019 02:00:00 15,4 13,9 18 10 35 19 ZW 1014,8 - 0,0
18.07.2019 01:00:00 15,5 13,5 15 8 23 13 ZW 1015,3 - 0,0
18.07.2019 00:00:00 16,0 13,7 18 10 35 19 WZW 1015,5 - 0,0

tt = temperatuur
td = dauwpunt
ff = windsnelheid
fx = windstoten
dd = windrichting
ppp = luchtdruk
vv = zicht
rr = neerslag

Weerstations in de omgeving